Flag for Germany Weather past 2 weeks in Falkensee, Brandenburg, Germany

Now
66 °F

Sunny.


Feels Like: 66 °F
Forecast: 50 / 68 °F
Wind: 12 mph from West

Location: Berlin-Tegel

Current Time: Sep 2, 2015 at 5:29:02 PM

Latest Report: Sep 2, 2015 at 4:50 PM


Visibility: 10 mi

Pressure: 29.98 "Hg

Humidity: 46%

Dew point: 45 °F

Location of FalkenseeLocation

Historic Weather in Falkensee — Graph

°F

Falkensee temperature yesterday

Maximum temperature yesterday: 82 °F (at 1:50 PM)
Minimum temperature yesterday: 61 °F (at 8:50 PM)
Average temperature yesterday: 72 °F

Past Weeks' High & Low Weather Summary

 TemperatureHumidityPressure
High93 °F (Aug 31, 2:20 PM)100% (Aug 19, 4:20 AM)30.30 "Hg (Aug 19, 4:20 AM)
Low52 °F (Aug 29, 3:50 AM)18% (Aug 21, 4:20 PM)29.71 "Hg (Aug 24, 7:20 PM)
Average69 °F62%30.01 "Hg
* Reported Aug 18 4:20 PM — Sep 2 4:20 PM, Falkensee, Weather by CustomWeather, © 2015

Note: Actual official high and low records may vary slightly from our data, if they occured in-between our weather recording intervals... More about our weather records

Advertising

Falkensee weather history for previous 24 hours

 ConditionsComfort  
Time TempWeatherWind HumidityBarometerVisibility
4:20 PM
Wed, Sep 2
66 °FScattered clouds.12 mph46%29.98 "HgN/A
3:50 PM68 °FScattered clouds.12 mph43%29.98 "HgN/A
3:20 PM66 °FScattered clouds.12 mph46%29.98 "HgN/A
2:50 PM66 °FScattered clouds.12 mph46%29.98 "HgN/A
2:20 PM68 °FScattered clouds.14 mph43%29.98 "HgN/A
1:50 PM66 °FScattered clouds.15 mph52%29.98 "HgN/A
1:20 PM68 °FScattered clouds.14 mph49%30.01 "HgN/A
12:50 PM66 °FScattered clouds.16 mph49%30.01 "HgN/A
12:20 PM64 °FScattered clouds.15 mph56%30.01 "HgN/A
11:50 AM63 °FPartly sunny.17 mph59%30.01 "HgN/A
11:20 AM63 °FPartly sunny.15 mph64%30.01 "HgN/A
10:50 AM63 °FPartly sunny.15 mph68%30.01 "HgN/A
10:20 AM61 °FPartly sunny.14 mph72%30.01 "HgN/A
9:50 AM61 °FPartly sunny.13 mph83%30.01 "HgN/A
9:20 AM59 °FBroken clouds.12 mph77%30.01 "HgN/A
8:50 AM57 °FBroken clouds.12 mph82%30.01 "HgN/A
8:20 AM57 °FScattered clouds.14 mph88%29.98 "HgN/A
7:50 AM55 °FScattered clouds.13 mph94%29.98 "HgN/A
7:20 AM55 °FScattered clouds.12 mph88%29.98 "HgN/A
6:50 AM54 °FPassing clouds.9 mph94%29.98 "HgN/A
6:20 AM54 °FPassing clouds.8 mph94%29.98 "HgN/A
5:50 AM55 °FPassing clouds.9 mph88%29.95 "HgN/A
5:20 AM55 °FPassing clouds.9 mph94%29.95 "HgN/A
4:50 AM55 °FPassing clouds.8 mph94%29.95 "HgN/A
4:20 AM55 °FPassing clouds.10 mph94%29.95 "HgN/A
3:50 AM57 °FPassing clouds.8 mph88%29.95 "HgN/A
3:20 AM57 °FPassing clouds.8 mph94%29.95 "HgN/A
2:50 AM57 °FPartly cloudy.9 mph94%29.95 "HgN/A
2:20 AM59 °FPassing clouds.12 mph88%29.92 "HgN/A
1:50 AM59 °FPassing clouds.12 mph88%29.92 "HgN/A
1:20 AM59 °FPartly cloudy.12 mph88%29.92 "HgN/A
12:50 AM59 °FPartly cloudy.9 mph94%29.92 "HgN/A
11:20 PM
Tue, Sep 1
61 °FPartly cloudy.10 mph88%29.86 "HgN/A
10:50 PM61 °FPartly cloudy.13 mph94%29.89 "HgN/A
10:20 PM61 °FPassing clouds.10 mph94%29.86 "HgN/A
9:50 PM61 °FPassing clouds.8 mph94%29.86 "HgN/A
9:20 PM61 °FPassing clouds.10 mph94%29.83 "HgN/A
8:50 PM61 °FLight rain. Partly sunny.10 mph94%29.83 "HgN/A
8:20 PM63 °FPartly sunny.8 mph88%29.83 "HgN/A
7:50 PM63 °FLight rain. Partly sunny.10 mph88%29.80 "HgN/A
7:20 PM63 °FBroken clouds.13 mph88%29.77 "HgN/A
6:50 PM64 °FThunderstorms. Partly sunny.12 mph94%29.77 "Hg5 mi
6:20 PM68 °FSprinkles. Broken clouds.12 mph83%29.77 "HgN/A
5:20 PM75 °FScattered clouds.13 mph57%29.71 "HgN/A
Weather by CustomWeather, © 2015

See weather overviewHow to use our weather pages